Regional Weather Roundup
Issued by NWS

Home | Current Version | Previous Version | Text Only | Print | Product List | Glossary Off
Versions: 1 2 3 4 5 6 7 8 9 10 11 12 13 14 15 16 17 18 19 20 21 22 23 24 25 26 27 28 29 30 31 32 33 34 35 36 37 38 39 40 41 42 43 44 45 46 47 48 49 50

000
ASUS43 KDMX 252106
RWRIA

WEATHER ROUNDUP FOR IOWA
NATIONAL WEATHER SERVICE DES MOINES IA
400 PM CDT THU MAY 25 2017

NOTE: "FAIR" INDICATES FEW OR NO CLOUDS BELOW 12,000 FEET WITH NO
SIGNIFICANT WEATHER AND/OR OBSTRUCTIONS TO VISIBILITY.

* - THESE STATIONS ARE NOT NWS STATIONS...THUS NOT UNDER NWS
QUALITY CONTROL.  THEY ALSO DO NOT REPORT WEATHER SUCH
AS PRECIPITATION OR FOG.

IAZ001>003-012>014-020>022-031>034-043>046-252200-
   NORTHWEST IOWA

CITY           SKY/WX    TMP DP  RH WIND       PRES   REMARKS
CARROLL *      SUNNY     75  50  41 S18       29.59
CHEROKEE *     CLOUDY    70  50  49 S15       29.56
DENISON *      SUNNY     73  48  40 S15G21    29.59
LE MARS *      CLOUDY    70  50  49 S17G25    29.52F
ORANGE CITY *  CLOUDY    68  50  52 S14G20    29.54
SHELDON *      PTSUNNY   70  48  46 S16G24    29.54
SIOUX CITY     CLOUDY    69  52  54 SE17G28   29.49F
SPENCER        CLOUDY    73  49  42 S21G28    29.56F
STORM LAKE *   MOSUNNY   73  46  38 S18G29    29.58F
$$

IAZ055>058-069>071-079>083-090>094-252200-
   SOUTHWEST IOWA

CITY           SKY/WX    TMP DP  RH WIND       PRES   REMARKS
ATLANTIC *     SUNNY     73  50  43 S18       29.58F
AUDUBON *      SUNNY     73  52  46 S12G17    29.60
CLARINDA *     SUNNY     75  52  43 SE13G25   29.59F
COUNCIL BLFS * SUNNY     75  54  46 SE17      29.56F
CRESTON *      SUNNY     72  52  49 SE20      29.63
HARLAN  *      SUNNY     75  48  38 SE14G24   29.61S
LAMONI         SUNNY     72  51  47 S10       29.64F
RED OAK *      SUNNY     75  52  43 S16G24    29.56
SHENANDOAH *   SUNNY     77  52  41 SE17      29.55F
$$

IAZ047>049-059>061-072>074-084-252200-
   CENTRAL IOWA

CITY           SKY/WX    TMP DP  RH WIND       PRES   REMARKS
AMES           SUNNY     70  52  52 SE10      29.63F
ANKENY *       SUNNY     72  50  46 S12G18    29.64F
BOONE *        SUNNY     72  52  49 S14G22    29.62F
CHARITON *     SUNNY     72  52  49 S10G17    29.65F
DES MOINES     MOSUNNY   73  49  42 SE9       29.63F
GRINNELL*      SUNNY     71  45  39 S7        29.67F
KNOXVILLE *    SUNNY     72  48  43 S9G16     29.64
MARSHALLTOWN   SUNNY     69  49  48 S12       29.64F
NEWTON *       SUNNY     70  46  43 SW9G16    29.65F
PELLA *        SUNNY     73  45  35 S6        29.66F
PERRY *          N/A     73  43  34 SE13G22   29.62F
$$

IAZ004>006-015-016-023>025-035-036-252200-
   NORTH CENTRAL IOWA

CITY           SKY/WX    TMP DP  RH WIND       PRES   REMARKS
ALGONA *       SUNNY     70  50  49 S16G25    29.62
CLARION *      SUNNY     72  48  43 S16       29.63F
ESTHERVILLE    CLOUDY    69  51  52 SE17      29.58F
FORT DODGE *   SUNNY     72  50  46 S12G21    29.62F
MASON CITY     SUNNY     69  49  48 SE13      29.65F
FOREST CITY *    N/A     70  41  35 S13G18    29.64
WEBSTER CITY * SUNNY     70  48  46 SE15G23   29.60F
IOWA FALLS *     N/A     71  50  48 SE7       29.66F
$$

IAZ007>011-017>019-026>030-037>042-050>054-066-252200-
   NORTHEAST IOWA

CITY           SKY/WX    TMP DP  RH WIND       PRES   REMARKS
CEDAR RAPIDS   SUNNY     69  52  54 SE5       29.66F
CHARLES CITY * SUNNY     70  50  49 SE7G16    29.67F
CLINTON *      MOSUNNY   66  55  67 CALM      29.69F
DECORAH *      SUNNY     68  52  56 VRB7      29.66F
DUBUQUE        SUNNY     68  54  60 NW5       29.68S
MONTICELLO *   MOSUNNY   70  50  49 CALM      29.66F
OELWEIN *      SUNNY     70  50  49 S9        29.67F
WATERLOO       SUNNY     72  48  42 S9        29.64F
$$

IAZ064-065-067-068-078-252200-
   EAST CENTRAL IOWA

CITY           SKY/WX    TMP DP  RH WIND       PRES   REMARKS
DAVENPORT      MOSUNNY   70  51  51 CALM      29.68S
IOWA CITY      SUNNY     73  53  49 S8        29.68S
MT. PLEASANT * SUNNY     72  47  41 SW5       29.68
MUSCATINE *    SUNNY     72  48  43 SW5       29.67
QUAD CITIES    MOSUNNY   71  51  49 SE3       29.66
$$

IAZ062-063-075>077-085>089-095>099-252200-
   SOUTHEAST IOWA

CITY           SKY/WX    TMP DP  RH WIND       PRES   REMARKS
BURLINGTON     SUNNY     71  54  54 S8        29.68S
FAIRFIELD *    SUNNY     72  48  43 VRB6G14   29.67F
FORT MADISON * SUNNY     72  54  53 S6        29.69
KEOKUK *       MOSUNNY   72  54  53 SW8       29.68F
OSKALOOSA *      N/A     72  47  39 S8        29.67
CENTERVILLE *    N/A     72  50  46 S5        29.68
OTTUMWA        SUNNY     71  49  45 S6        29.66F
WASHINGTON *   SUNNY     72  50  46 S7        29.68F
$$

ABBREVIATIONS USED IN REMARKS
   TC - TEMPERATURES IN CELSIUS
  WCI - WIND CHILL INDEX
   HX - HEAT INDEX
  VSB - VISIBILITY
$$





USA.gov is the U.S. government's official web portal to all federal, state and local government web resources and services.